Flag for U.S.A. Weather past 2 weeks in Idaho Falls, Idaho, U.S.A.

Now
69 °F

Scattered clouds.


Feels Like: 69 °F
Forecast: 47 / 73 °F
Wind: 6 mph from North

Location: Fanning Field

Current Time: Jun 3, 2015 at 1:51:30 PM

Latest Report: Jun 3, 2015 at 12:53 PM


Visibility: 10 mi

Pressure: 29.85 "Hg

Humidity: 44%

Dew point: 46 °F

Location of Idaho FallsLocation

Historic Weather in Idaho Falls — Graph

°F

Idaho Falls temperature yesterday

Maximum temperature yesterday: 72 °F (at 4:53 PM)
Minimum temperature yesterday: 43 °F (at 4:53 AM)
Average temperature yesterday: 58 °F

Past Weeks' High & Low Weather Summary

 TemperatureHumidityPressure
High83 °F (May 31, 5:53 PM)100% (May 24, 2:58 AM)30.19 "Hg (May 24, 2:58 AM)
Low41 °F (May 29, 4:53 AM)22% (May 31, 4:53 PM)29.72 "Hg (Jun 1, 3:53 PM)
Average56 °F72%29.95 "Hg
* Reported May 19 11:53 AM — Jun 3 11:53 AM, Idaho Falls, Weather by CustomWeather, © 2015

Note: Actual official high and low records may vary slightly from our data, if they occured in-between our weather recording intervals... More about our weather records

Advertising

Idaho Falls weather history for previous 24 hours

 ConditionsComfort  
Time TempWeatherWind HumidityBarometerVisibility
11:53 AM
Wed, Jun 3
66 °FPassing clouds.5 mph50%29.87 "Hg10 mi
10:53 AM63 °FPassing clouds.No wind56%29.89 "Hg10 mi
9:53 AM59 °FScattered clouds.6 mph58%29.92 "Hg10 mi
8:53 AM55 °FScattered clouds.No wind72%29.92 "Hg10 mi
7:53 AM49 °FScattered clouds.3 mph84%29.93 "Hg10 mi
6:53 AM43 °FClear.No wind93%29.94 "Hg10 mi
5:53 AM42 °FClear.6 mph89%29.93 "Hg10 mi
4:53 AM45 °FClear.3 mph82%29.91 "Hg10 mi
3:53 AM48 °FPassing clouds.5 mph77%29.92 "Hg10 mi
2:53 AM53 °FClear.No wind64%29.91 "Hg10 mi
1:53 AM52 °FPassing clouds.No wind75%29.93 "Hg10 mi
12:53 AM58 °FPassing clouds.8 mph56%29.90 "Hg10 mi
11:53 PM
Tue, Jun 2
59 °FClear.9 mph58%29.90 "Hg10 mi
10:53 PM60 °FSunny.7 mph56%29.90 "Hg10 mi
9:53 PM60 °FSunny.7 mph56%29.90 "Hg10 mi
8:53 PM66 °FSunny.12 mph43%29.88 "Hg10 mi
7:53 PM68 °FSunny.8 mph39%29.87 "Hg10 mi
6:53 PM69 °FSunny.15 mph35%29.87 "Hg10 mi
5:53 PM71 °FScattered clouds.18 mph32%29.88 "Hg10 mi
4:53 PM72 °FPartly sunny.18 mph41%29.88 "Hg10 mi
3:53 PM70 °FPartly sunny.13 mph47%29.90 "Hg10 mi
2:53 PM69 °FBroken clouds.8 mph53%29.92 "Hg10 mi
1:53 PM64 °FBroken clouds.9 mph61%29.96 "Hg10 mi
Weather by CustomWeather, © 2015

See weather overviewHow to use our weather pages